Find Starlink 37550

NORAD ID: 100277 Int'l Des: 2026-183 Owner: SPXS Country: US Constellation: starlink operational

当前视图

正在加载3D地球...

About Starlink 37550

Starlink 37550 (NORAD 100277) is a starlink constellation satellite launched Aug 11, 2026 by SPXS of US. with a mass of 575.00 kg.

即将过境

Passes for default location (London). Set your location on the main map for personalized predictions.

高度历史

Loading altitude history...

两行轨道根数

1 A0277U 26183F 26255.61656217 -.00748338 00000-0 -60756-2 0 9991
2 A0277 53.1568 296.3800 0001293 65.0674 295.0480 15.72195858 5067
Epoch: Sep 12, 2026 • Age: 193 hours

当前状态

高度 401.6 km
远地点 / 近地点 N/A
速度 7.67 km/s
星下点 -53.31°S, 63.06°W
发射日期 Aug 11, 2026
运行时间 0.1 years
类型 internet

技术详情

分类 Payload
质量 575.00 kg
干质量 530.00 kg
长度 0.30 m
跨度 29.00 m
形状 ? Box + pan
制造商 SPXS
平台类型 Starlink V2MO
阶段状态 In Orbit
所有者/国家 SPXS/US

Most Searched